Theta_e
296 296 296 295 293 293 293 294 294 295 294 293 293 293 293 293 291 292 291 294 296 300 302 304 305 306 306 306 308 312 317 318 317 319 321 324 325 330
295 296 297 295 294 293 293 293 295 294 294 293 293 292 292 291 291 290 290 292 292 298 300 302 304 305 305 304 306 307 308 318 319 318 322 324 327 328
296 295 296 295 294 293 293 294 295 295 293 293 293 292 291 291 290 290 290 291 291 295 298 300 303 303 304 304 302 305 305 306 309 311 319 318 323 326
296 293 296 295 294 293 293 294 294 296 294 293 293 292 291 291 290 289 289 290 291 292 295 298 299 301 302 302 302 302 303 303 304 306 307 311 315 314
294 294 296 295 294 292 294 294 295 296 294 294 293 292 290 290 290 289 289 289 289 291 292 293 295 298 299 300 300 301 303 302 301 302 303 304 306 309
295 295 296 295 293 293 295 296 295 295 294 294 292 290 290 290 289 289 289 289 289 290 290 291 295 296 297 297 298 299 301 302 304 300 300 301 302 303
295 295 296 296 294 294 295 296 295 294 293 292 291 290 290 290 290 289 289 289 289 289 289 290 294 295 295 295 296 297 298 299 300 302 302 301 301 301
296 294 295 295 293 293 295 296 295 294 294 292 291 291 291 290 290 289 290 289 289 289 289 290 293 293 293 294 294 295 295 297 297 298 299 300 301 302
296 294 295 295 293 291 293 294 292 292 294 293 291 291 291 291 290 289 289 289 289 289 289 290 291 290 290 291 292 292 293 294 295 296 296 296 296 297
295 294 295 294 293 292 294 293 291 291 291 292 293 292 292 291 291 289 289 289 289 289 289 288 289 290 289 289 289 290 292 292 293 294 294 294 294 293
295 294 294 294 293 293 294 293 290 291 291 291 293 293 293 293 292 290 289 288 288 289 288 288 288 289 289 289 289 289 289 291 292 293 293 293 292 291
295 294 294 294 293 294 294 292 290 291 291 290 291 291 292 291 291 291 290 289 288 288 289 289 288 288 288 289 289 289 289 289 289 289 291 291 291 291
295 294 294 293 293 294 294 293 291 291 289 289 290 290 290 290 290 290 290 290 289 289 289 289 289 289 288 288 289 289 289 289 289 289 289 290 290 291
296 295 295 294 293 293 293 292 293 291 289 289 289 290 289 290 290 290 290 290 290 290 289 289 289 289 288 289 288 289 289 289 289 289 289 289 289 289
297 296 296 294 294 293 291 292 291 289 289 288 288 288 288 288 288 288 289 289 289 289 289 289 289 289 289 288 288 288 288 289 289 289 289 289 288 288
298 297 295 294 294 292 290 292 290 289 289 288 288 288 288 288 288 288 288 288 288 288 288 288 288 288 288 288 288 288 288 288 289 289 289 288 288 288
297 295 293 293 292 292 291 291 290 290 290 288 288 288 288 288 288 288 288 288 287 287 287 288 288 288 288 288 288 288 288 288 288 288 288 287 287 287
295 293 292 291 289 290 290 290 290 290 290 289 288 288 287 287 288 287 287 287 287 287 287 287 288 287 287 287 288 288 288 288 288 288 287 287 287 288
294 293 291 289 290 290 289 289 290 290 290 289 288 287 287 287 287 287 287 287 287 286 286 286 287 287 283 286 287 288 288 288 288 287 287 287 287 288
295 293 290 289 289 289 289 289 289 289 289 289 288 288 288 287 287 287 286 286 286 286 286 286 287 287 287 283 287 287 288 287 287 287 287 287 287 288
294 292 291 289 289 289 290 289 289 289 289 288 288 288 288 287 287 286 286 287 287 286 286 286 287 287 288 287 287 287 287 286 286 286 287 287 287 287
293 292 291 289 289 289 289 289 289 289 288 288 288 288 288 288 287 286 286 286 286 286 286 286 287 287 287 287 286 286 286 286 286 286 287 287 288 286
293 291 290 289 289 289 289 289 288 288 288 288 288 288 288 287 286 286 285 286 285 286 286 286 286 286 287 286 286 286 285 285 285 286 286 286 286 285
Wind_Speed
15 15 16 15 14 14 13 12 8 5 7 13 17 25 23 24 27 30 28 26 25 28 29 35 30 32 39 44 51 49 16 41 42 32 45 35 32 30
14 15 16 14 14 14 13 14 15 10 4 17 22 26 24 22 26 29 24 21 23 26 27 32 30 33 35 35 43 47 58 34 27 9 16 22 22 18
14 16 15 13 14 15 12 15 17 12 7 19 19 22 24 20 27 27 22 21 21 23 24 26 28 31 33 33 37 44 39 45 51 45 30 35 21 18
15 16 14 13 14 14 12 15 19 14 13 14 17 19 25 22 25 25 24 19 21 22 22 23 25 28 29 31 33 29 32 34 32 33 44 41 35 29
15 15 14 14 15 15 14 16 17 13 14 15 13 17 21 21 23 22 22 19 21 20 20 21 22 22 26 32 32 29 30 30 29 28 30 33 33 37
14 14 14 14 14 14 14 12 15 12 14 12 11 16 16 18 18 20 22 23 16 22 21 20 20 22 24 26 28 30 29 28 27 23 25 26 26 31
15 14 14 14 12 13 13 13 13 12 12 14 11 12 13 15 16 17 16 20 10 25 21 22 18 23 25 24 26 26 25 24 24 22 24 20 20 22
17 16 14 13 12 12 9 11 11 12 11 10 9 10 14 15 17 17 17 12 7 19 19 18 16 18 20 23 21 22 23 25 21 21 20 19 19 17
17 16 14 12 10 11 9 11 12 7 7 8 8 10 12 13 15 15 16 10 7 19 13 13 14 18 19 18 21 21 21 19 19 21 21 19 18 16
17 15 14 10 10 9 10 11 10 8 8 7 7 7 8 10 12 10 11 11 5 14 9 8 14 12 15 18 19 19 19 19 18 17 18 18 14 13
16 14 11 11 11 8 10 11 10 7 5 5 7 9 9 7 8 9 10 9 5 6 13 8 14 11 10 15 17 20 16 16 18 19 18 17 16 13
15 13 12 12 9 8 11 10 8 6 8 7 7 7 5 6 7 8 7 9 6 3 9 6 10 10 6 10 18 23 19 16 18 16 16 16 17 17
15 12 9 8 8 9 10 10 8 6 8 7 5 4 4 4 5 6 6 6 7 4 6 9 6 7 5 6 8 16 15 16 17 17 16 16 17 16
16 13 12 8 8 7 8 9 7 8 6 6 5 4 3 4 5 6 5 5 7 10 10 9 5 5 4 5 4 11 12 8 12 14 17 16 14 12
17 15 15 12 9 8 8 7 8 8 7 8 5 4 5 6 6 6 5 5 4 4 6 7 7 6 6 5 6 9 13 8 9 14 15 15 14 13
18 15 12 12 12 11 10 10 10 8 8 9 4 3 3 4 4 6 6 7 5 5 4 7 8 6 4 4 5 7 6 3 7 10 11 13 13 12
20 16 14 15 15 14 14 14 13 11 9 7 2 1 2 2 1 2 2 3 2 4 6 5 6 5 3 2 4 7 8 7 9 11 9 13 11 11
18 18 17 16 16 16 16 16 15 15 11 6 2 2 2 1 1 2 2 1 1 3 4 5 5 4 3 1 2 4 7 7 8 9 10 10 12 11
19 21 19 18 19 18 19 18 18 16 11 7 4 3 3 3 5 4 3 2 2 3 4 5 5 3 2 2 2 2 6 7 9 13 11 10 11 10
26 22 21 19 20 20 20 20 18 16 12 8 7 6 5 6 5 4 4 4 5 5 6 6 5 4 2 1 4 6 7 8 11 13 12 12 12 5
28 25 23 21 22 22 21 20 18 17 13 10 9 8 7 6 6 5 4 3 4 4 6 8 6 6 5 4 3 4 5 8 10 10 11 9 11 8
29 29 24 23 23 23 22 21 19 17 14 13 12 11 9 7 6 5 5 4 4 3 4 4 3 2 1 1 2 3 7 11 7 6 3 6 5 5
30 27 26 25 24 24 23 23 21 19 16 14 13 12 11 10 7 6 5 5 5 4 4 3 2 0 0 1 2 3 5 9 10 8 5 7 3 9
Wind_Direction
298 304 307 309 305 305 307 302 296 316 325 325 328 338 335 334 343 333 335 341 343 349 353 355 1 359 18 12 9 32 17 224 222 225 242 240 221 200
293 306 308 306 303 303 307 304 307 292 289 321 321 334 334 337 345 343 344 346 350 355 356 360 8 9 18 17 15 18 26 58 126 109 95 151 139 146
288 300 302 306 305 303 305 304 304 300 282 309 319 338 338 332 348 349 355 1 1 359 360 1 13 13 18 27 22 24 29 28 43 41 57 73 91 139
293 295 296 303 303 307 300 308 310 307 296 298 318 334 340 339 352 354 0 5 8 2 3 8 14 11 17 25 39 32 25 43 51 39 43 53 59 68
296 295 292 301 300 310 305 310 318 300 316 315 313 334 335 337 344 355 1 11 23 14 7 11 19 23 13 22 31 40 40 38 34 44 50 46 45 53
297 295 288 295 295 306 308 315 320 312 331 349 343 340 345 349 350 349 355 5 7 18 22 18 25 39 37 22 25 36 42 49 54 54 52 51 50 44
287 295 287 291 291 299 298 311 318 317 323 339 339 337 339 347 347 351 352 358 12 9 13 23 39 48 43 37 32 28 41 45 55 64 66 66 65 59
281 295 285 285 289 302 291 310 314 316 317 329 332 336 342 349 346 346 350 356 4 5 4 26 45 42 36 32 25 22 28 39 45 59 63 74 75 76
277 291 286 280 283 304 298 306 319 305 306 313 318 334 335 352 341 337 352 358 6 9 7 15 18 27 30 31 25 24 27 32 39 40 47 57 65 69
277 286 283 270 279 301 298 313 326 316 302 292 293 310 324 341 354 348 344 344 0 20 18 16 3 1 4 17 24 29 31 27 32 42 42 44 57 60
273 278 273 276 275 281 294 309 324 336 327 299 275 284 296 299 322 346 7 354 7 1 16 2 354 347 342 358 27 26 30 36 40 39 43 43 39 45
268 274 270 273 261 257 290 298 315 330 324 313 293 291 295 297 292 308 338 355 345 343 18 1 354 4 348 24 23 19 29 43 34 34 33 26 27 30
261 268 267 264 244 257 277 277 294 303 312 294 300 304 310 324 334 320 302 316 334 319 4 351 333 2 353 322 349 19 27 27 34 33 33 33 31 23
252 260 258 259 242 261 261 266 264 272 289 281 275 286 315 342 353 355 348 320 314 312 325 314 279 310 331 324 330 346 5 24 28 21 20 22 21 20
248 255 264 244 236 245 248 244 234 263 260 263 255 288 345 353 357 351 356 355 355 3 2 3 344 299 289 275 308 327 343 351 10 11 14 13 12 9
245 234 238 232 236 243 218 230 245 248 250 261 285 338 349 359 5 8 1 360 1 14 16 360 353 344 337 357 353 346 5 10 12 9 6 8 9 13
229 225 227 232 238 229 223 226 233 239 245 259 284 320 347 1 25 13 12 13 21 355 10 23 10 353 1 56 69 40 33 26 17 6 7 5 18 15
217 228 233 231 225 216 213 215 226 237 243 246 241 215 247 275 260 261 247 214 13 9 356 4 18 48 117 94 64 37 22 12 8 15 9 360 6 21
217 228 231 226 218 214 213 219 227 235 238 229 217 211 218 236 247 268 314 325 331 337 351 350 0 19 48 16 9 335 345 5 11 5 6 5 355 3
220 226 229 225 217 215 215 221 228 230 228 218 208 204 215 237 250 276 304 322 331 337 342 349 347 349 340 271 329 353 12 12 4 360 354 355 357 7
221 228 231 226 218 217 217 222 227 228 226 211 202 205 211 230 251 264 281 292 310 330 339 343 338 317 297 301 314 337 355 360 358 345 337 345 349 355
228 230 228 224 219 217 217 219 223 223 217 208 203 210 210 218 239 255 265 274 274 287 309 326 330 314 284 304 340 353 349 345 359 8 34 20 356 346
229 228 227 221 218 218 218 217 218 221 214 207 208 213 215 218 219 235 254 263 270 285 309 319 334 5 157 24 346 350 352 350 353 354 18 10 335 329